TimeEDT,TemperatureF,Dew PointF,Humidity,Sea Level PressureIn,VisibilityMPH,Wind Direction,Wind SpeedMPH,Gust SpeedMPH,PrecipitationIn,Events,Conditions,WindDirDegrees,DateUTC
1:53 AM,30.9,23.0,72,30.20,10.0,South,4.6,-,N/A,,Mostly Cloudy,190,2012-10-14 05:53:00
2:53 AM,32.0,25.0,75,30.19,10.0,SSE,4.6,-,N/A,,Overcast,150,2012-10-14 06:53:00
3:53 AM,32.0,26.1,79,30.18,10.0,SE,3.5,-,N/A,,Overcast,130,2012-10-14 07:53:00
4:53 AM,32.0,26.1,79,30.17,10.0,South,5.8,-,N/A,,Overcast,170,2012-10-14 08:53:00
5:53 AM,33.1,27.0,78,30.17,10.0,South,5.8,-,N/A,,Overcast,190,2012-10-14 09:53:00
6:53 AM,33.1,28.0,82,30.15,10.0,SSE,4.6,-,N/A,,Overcast,160,2012-10-14 10:53:00
7:31 AM,33.8,30.2,87,30.12,10.0,South,5.8,-,N/A,,Overcast,170,2012-10-14 11:31:00
7:53 AM,34.0,30.0,85,30.15,10.0,SSE,8.1,-,N/A,,Overcast,160,2012-10-14 11:53:00
8:01 AM,33.8,30.2,87,30.12,10.0,SSE,5.8,-,N/A,,Overcast,160,2012-10-14 12:01:00
8:25 AM,33.8,30.2,87,30.12,10.0,SE,4.6,-,N/A,,Overcast,130,2012-10-14 12:25:00
8:35 AM,33.8,30.2,87,30.12,9.0,SSE,6.9,-,0.00,Snow,Light Snow,150,2012-10-14 12:35:00
8:49 AM,33.8,32.0,93,30.11,10.0,SSE,6.9,-,0.00,,Overcast,150,2012-10-14 12:49:00
8:53 AM,34.0,32.0,92,30.14,10.0,SSE,8.1,-,0.00,,Overcast,160,2012-10-14 12:53:00
9:22 AM,33.8,32.0,93,30.10,9.0,SSE,9.2,16.1,0.00,Snow,Light Snow,160,2012-10-14 13:22:00
9:53 AM,34.0,32.0,92,30.13,10.0,SSE,6.9,-,0.00,,Overcast,160,2012-10-14 13:53:00
10:53 AM,34.0,32.0,92,30.12,10.0,South,5.8,-,N/A,,Overcast,180,2012-10-14 14:53:00
11:53 AM,35.1,33.1,92,30.11,10.0,South,5.8,-,N/A,,Overcast,170,2012-10-14 15:53:00
12:53 PM,36.0,32.0,86,30.09,10.0,SE,5.8,-,N/A,,Overcast,140,2012-10-14 16:53:00
1:17 PM,35.6,32.0,87,30.05,10.0,South,4.6,-,N/A,,Overcast,170,2012-10-14 17:17:00
1:53 PM,36.0,32.0,86,30.07,10.0,SE,4.6,-,N/A,,Overcast,140,2012-10-14 17:53:00
2:43 PM,37.4,32.0,81,30.04,10.0,South,4.6,-,N/A,,Overcast,190,2012-10-14 18:43:00
2:53 PM,37.0,32.0,82,30.06,10.0,SSW,4.6,-,N/A,,Overcast,200,2012-10-14 18:53:00
3:53 PM,37.4,33.8,87,30.01,10.0,SSE,4.6,-,N/A,,Overcast,160,2012-10-14 19:53:00
4:53 PM,37.0,33.1,86,30.03,10.0,East,3.5,-,N/A,,Overcast,100,2012-10-14 20:53:00
5:37 PM,37.4,33.8,87,30.00,10.0,East,4.6,-,N/A,,Overcast,80,2012-10-14 21:37:00
5:53 PM,37.0,33.1,86,30.03,10.0,Calm,Calm,-,N/A,,Overcast,0,2012-10-14 21:53:00
6:41 PM,35.6,33.8,93,30.01,10.0,ESE,4.6,-,N/A,,Overcast,120,2012-10-14 22:41:00
6:53 PM,36.0,33.1,89,30.04,10.0,ESE,3.5,-,N/A,,Overcast,120,2012-10-14 22:53:00
7:53 PM,36.0,33.1,89,30.03,10.0,Calm,Calm,-,N/A,,Overcast,0,2012-10-14 23:53:00
8:53 PM,36.0,33.1,89,30.01,10.0,ENE,3.5,-,0.00,,Overcast,70,2012-10-15 00:53:00
9:12 PM,35.6,33.8,93,29.98,10.0,ENE,3.5,-,0.00,Rain,Light Rain,60,2012-10-15 01:12:00
9:53 PM,35.1,34.0,96,30.00,10.0,East,4.6,-,0.00,Rain,Light Rain,90,2012-10-15 01:53:00
10:53 PM,35.1,34.0,96,30.00,10.0,East,4.6,-,0.01,Rain,Light Rain,80,2012-10-15 02:53:00
11:20 PM,35.6,33.8,93,29.97,10.0,East,4.6,-,0.00,Rain,Light Rain,90,2012-10-15 03:20:00
11:53 PM,35.1,34.0,96,29.96,10.0,East,8.1,-,0.02,Rain,Light Rain,80,2012-10-15 03:53:00